Regional Weather Roundup
Issued by NWS

Home | Current Version | Previous Version | Text Only | Print | Product List | Glossary On
Versions: 1 2 3 4 5 6 7 8 9 10 11 12 13 14 15 16 17 18 19 20 21 22 23 24 25 26 27 28 29 30 31 32 33 34 35 36 37 38 39 40 41 42 43 44 45 46 47 48 49 50
000
ASUS45 KBOU 240410
RWRCO

WEATHER ROUNDUP FOR COLORADO
NATIONAL WEATHER SERVICE DENVER/BOULDER CO
1000 PM MDT FRI OCT 23 2020

NOTE: "FAIR" INDICATES FEW OR NO CLOUDS BELOW 12000 FEET WITH NO
SIGNIFICANT WEATHER AND/OR OBSTRUCTIONS TO VISIBILITY.

COZ001>005-013-030-031-240500-
...NORTHWEST COLORADO...

CITY           SKY/WX    TMP DP  RH WIND       PRES   REMARKS
CRAIG          FAIR      29  13  51 CALM      30.09F
HAYDEN         FAIR      31  14  49 E5        30.10F WCI  26
MEEKER         FAIR      35  16  45 NE3       30.09S
RANGELY        FAIR      28  12  53 CALM      30.11S
RABBIT EARS PA MOCLDY    32  12  43 W9        30.17S WCI  24
STEAMBOAT SPGS FAIR      31  11  43 SW3       30.08S
WALDEN         NOT AVBL
$$

COZ006>008-011-240500-
...WEST CENTRAL VALLEYS...

CITY           SKY/WX    TMP DP  RH WIND       PRES   REMARKS
GRAND JUNCTION FAIR      47  14  26 E7        30.05R
MONTROSE       FAIR      42  23  46 SE5       30.11F
EAGLE          FAIR      48  18  30 E5        30.09R
RIFLE          FAIR      49  14  24 E3        30.07R
DELTA          FAIR      46  15  28 E5        30.09S
NUCLA          NOT AVBL
$$

COZ017>023-064>068-240500-
...SOUTHWEST COLORADO...

CITY           SKY/WX    TMP DP  RH WIND       PRES   REMARKS
DURANGO        FAIR      43  16  33 NE7       30.14S
CORTEZ         FAIR      43  24  47 E3        30.11R
PAGOSA SPRINGS FAIR      45  19  35 CALM      30.19S
TELLURIDE      FAIR      46  19  34 CALM      30.27S
WOLF CREEK PAS FAIR      34  18  51 SW22G35   30.39S WCI  22
$$

COZ009-010-012-014-032>034-037-058>063-240500-
...CENTRAL COLORADO...

CITY           SKY/WX    TMP DP  RH WIND       PRES   REMARKS
ASPEN          MOCLDY    40  16  37 S5        30.11F
BUENA VISTA    FAIR      26  19  74 CALM      30.15R
COPPER MTN     FAIR      37  19  48 MISG      30.26R
BERTHOUD PASS  FAIR      30  10  43 W32G51    30.21R WCI  15
DAKOTA HILL    FAIR      34  12  40 W33G48    30.03F WCI  19
COTTONWOOD PAS FAIR      46  16  29 W13G30    30.18R
GUNNISON       FAIR      41  17  38 VRB3      30.16S
GRANBY         FAIR      43  17  35 E5        30.12R
KREMMLING      FAIR      50  19  29 SW8       30.08S
LEADVILLE      FAIR      34  13  41 E8        30.17F WCI  27
MONARCH PASS   FAIR      34  18  51 W43G51    30.39S WCI  18
SALIDA         FAIR      27  22  80 SE7       30.22S WCI  19
SUNLIGHT       FAIR      36  14  41 SW18G28   30.25F
WILKERSON PASS FAIR      36  12  38 SW20G28   30.22F
$$

COZ069>075-240500-
...SAN LUIS VALLEY/SANGRE DE CRISTO MOUNTAINS...

CITY           SKY/WX    TMP DP  RH WIND       PRES   REMARKS
ALAMOSA        FAIR      43  18  36 SW7       30.13S
DEL NORTE      FAIR      48  18  31 W10       30.15S
LA VETA PASS   FAIR      41  19  42 W13G25    30.19F
SAGUACHE       FAIR      46  19  34 NW13      30.15R
$$

COZ035-036-038>040-240500-
...NORTHERN COLORADO FRONT RANGE...

CITY           SKY/WX    TMP DP  RH WIND       PRES   REMARKS
DENVER INTL AP FAIR      23  17  78 E7        30.05F WCI  15
AURORA         PTCLDY    28  21  77 SW9       30.04F WCI  19
WATKINS        NOT AVBL
ERIE           FAIR      23  20  88 CALM      30.06F
BOULDER        MOCLDY    28  27  93 NW3       30.06F
CENTENNIAL     FAIR      28  21  75 CALM      30.03F
BROOMFIELD     PTCLDY    28  23  80 N7        30.06F WCI  21
FORT COLLINS   FAIR      28  20  71 NE7       30.08F WCI  21
LONGMONT       FAIR      28  23  82 CALM      30.10R
$$

COZ041-046-047-076>085-087-088-240500-
...PIKES PEAK/PALMER DIVIDE AND SOUTHERN FOOTHILLS...

CITY           SKY/WX    TMP DP  RH WIND       PRES   REMARKS
COLO. SPRINGS  CLOUDY    27  17  66 S18       30.17F WCI  14
A. F. ACADEMY  CLOUDY    26  18  70 S13       30.11F WCI  15
SCHRIEVER AFB  NOT AVBL
CHEYENNE MTN   MOCLDY    24  22  93 CALM      30.08F
ELLICOTT       FAIR      24  17  76 S12       30.19F WCI  13
FALCON         CLOUDY    25  17  71 S17       30.15F WCI  11
FORT CARSON    NOT AVBL
LIMON          FAIR      26  18  71 S18G28    30.15F WCI  13
MONUMENT HILL  FAIR      21  19  93 S25       30.07F WCI   4
CANON CITY     NOT AVBL
WALSENBURG     NOT AVBL
TRINIDAD       FAIR      28  18  66 CALM      30.17F
$$

COZ042>045-048>051-090-091-240500-
...NORTHEAST COLORADO...

CITY           SKY/WX    TMP DP  RH WIND       PRES   REMARKS
GREELEY        FAIR      26  18  71 E6        30.10F WCI  19
AKRON          FAIR      24  18  77 SE14      30.15F WCI  12
BURLINGTON     FAIR      24  18  77 SE12      30.24F WCI  13
WRAY           FAIR      27  21  80 SE7       30.23F WCI  19
YUMA           NOT AVBL
STERLING       FAIR      28  21  74 S13G21    30.15F WCI  18
HOLYOKE        FAIR      27  21  80 SE10      30.23F WCI  17
FORT MORGAN    FAIR      27  17  63 S14       30.13F WCI  16
$$

COZ086-089-092>099-240500-
...SOUTHEAST COLORADO...

CITY           SKY/WX    TMP DP  RH WIND       PRES   REMARKS
PUEBLO         FAIR      29  18  63 E5        30.22F WCI  24
LA JUNTA       FAIR      30  20  66 E8        30.24F WCI  22
LAMAR          FAIR      28  18  66 SE9       30.26F WCI  19
SPRINGFIELD      N/A     27  19  72 SE12      30.26F WCI  17
$$



USA.gov is the U.S. government's official web portal to all federal, state and local government web resources and services.